Weather History for Milk River, Alberta

Change the Weather History Date:

Friday, October 11, 2013

  Actual Average Record
Temperature  
Mean Temperature 42 °F -  
Max Temperature 48 °F - - ()
Min Temperature 35 °F - - ()
Degree Days  
Heating Degree Days 24    
Moisture  
Dew Point 34 °F    
Average Humidity 83    
Maximum Humidity 95    
Minimum Humidity 50    
Precipitation  
Precipitation 0.02 in - - ()
Sea Level Pressure  
Sea Level Pressure 30.03 in    
Wind  
Wind Speed 7 mph ()    
Max Wind Speed 15 mph    
Max Gust Speed -    
T = Trace of Precipitation, MM = Missing Value Source: Averaged Metar Reports

Daily Weather History Graph

Daily Weather History Graph

Search for Another Location

Airport:

Trip Planner

Search our weather history database for the weather conditions in past years. The results will help you decide how hot, cold, wet, or windy it might be!

Date:

Astronomy

Oct. 11, 2013 Rise Set
Actual Time 7:43 AM MDT 6:45 PM MDT
Civil Twilight 7:11 AM MDT 7:17 PM MDT
Nautical Twilight 6:34 AM MDT 7:53 PM MDT
Astronomical Twilight 5:57 AM MDT 8:30 PM MDT
Moon 2:44 PM MDT (10/11) No Moon Set
Length of Visible Light 12h 05m
Length of Day
11h 02m
Waxing Crescent, 48% of the Moon is Illuminated
Oct 11
Waxing Crescent
Oct 11
First Quarter
Oct 18
Full
Oct 26
Last Quarter
Nov 3
New

Hourly Weather History & Observations

Time (MDT) Temp. Windchill Dew Point Humidity Pressure Visibility Wind Dir Wind Speed Gust Speed Precip Events Conditions
12:00 AM 37 °F - 33 °F 82% 29.89 in - WNW 6.9 mph - -  
12:00 AM 37.0 °F 31.6 °F 33.4 °F 87% 29.89 in - WNW 6.9 mph - N/A   Unknown
1:00 AM 36.5 °F 31.8 °F 33.8 °F 90% 29.90 in - WNW 5.8 mph - N/A   Unknown
2:00 AM 36.9 °F 32.2 °F 34.7 °F 92% 29.91 in - NW 5.8 mph - N/A   Unknown
3:00 AM 39.4 °F 36.1 °F 36.9 °F 91% 29.93 in - North 4.6 mph - 0.02 in   Unknown
4:00 AM 37.9 °F 30.0 °F 36.3 °F 94% 29.95 in - NW 12.7 mph - N/A   Unknown
5:00 AM 36.5 °F 27.4 °F 35.2 °F 95% 29.97 in - NNW 15.0 mph - N/A   Unknown
6:00 AM 36 °F - 35 °F 92% 30.01 in - NW 10.4 mph - -  
6:00 AM 36.0 °F 28.5 °F 34.5 °F 94% 30.01 in - NW 10.4 mph - N/A   Unknown
7:00 AM 35.6 °F 29.2 °F 34.2 °F 94% 30.04 in - WNW 8.1 mph - 0.02 in   Unknown
8:00 AM 35.6 °F 28.0 °F 34.3 °F 95% 30.06 in - WNW 10.4 mph - N/A   Unknown
9:00 AM 36.5 °F 31.0 °F 34.5 °F 93% 30.06 in - NW 6.9 mph - N/A   Unknown
10:00 AM 38.3 °F 31.4 °F 35.6 °F 90% 30.07 in - NNW 10.4 mph - N/A   Unknown
11:00 AM 38.3 °F 30.9 °F 35.4 °F 89% 30.08 in - NW 11.5 mph - N/A   Unknown
12:00 PM 40 °F - 35 °F 77% 30.09 in - NNW 11.5 mph - -  
12:00 PM 40.1 °F 33.2 °F 35.2 °F 83% 30.09 in - NNW 11.5 mph - N/A   Unknown
1:00 PM 42.6 °F 36.8 °F 34.9 °F 74% 30.08 in - North 10.4 mph - N/A   Unknown
2:00 PM 42.6 °F - 33.8 °F 71% 30.06 in - NNE 2.3 mph - N/A   Unknown
3:00 PM 44.1 °F 42.5 °F 35.1 °F 71% 30.06 in - North 3.5 mph - N/A   Unknown
4:00 PM 45.0 °F 43.5 °F 33.6 °F 64% 30.06 in - NNW 3.5 mph - N/A   Unknown
5:00 PM 47.8 °F - 33.8 °F 58% 30.05 in - North 4.6 mph - N/A   Unknown
6:00 PM 44 °F - 32 °F 50% 30.06 in - NNE 6.9 mph - -  
6:00 PM 43.7 °F 39.7 °F 31.6 °F 63% 30.06 in - NNE 6.9 mph - N/A   Unknown
7:00 PM 41.0 °F 38.0 °F 34.0 °F 76% 30.07 in - East 4.6 mph - N/A   Unknown
8:00 PM 39.2 °F 35.9 °F 35.1 °F 85% 30.08 in - ESE 4.6 mph - N/A   Unknown
9:00 PM 38.5 °F - 34.3 °F 85% 30.08 in - ESE 2.3 mph - N/A   Unknown
10:00 PM 38.8 °F - 34.7 °F 85% 30.09 in - South 1.2 mph - N/A   Unknown
11:00 PM 38.1 °F - 35.6 °F 91% 30.09 in - NNW 2.3 mph - N/A   Unknown